Latest Coastal Weather Observations for Cocos Island

IDW60701

Issued at 2:55 pm WST Thursday 27 November 2014 (issued every 10 minutes, with the page automatically refreshed every 10 minutes)

About coastal observations | Map of coastal stations | Coastal observations for WA | Marine services | Other Formats
Station Details ID: 200284 Name: COCOS ISLAND AIRPORT Lat: -12.19 Lon: 96.83 Height: 3.0 m
Data from the previous 72 hours. | See also: Recent months at Cocos Island
Date/Time
WST
Temp

°C
Wind Pressure Rain
since 9am
mm
Weather Cloud Vis
km
Sea
Height
m
Swell
Dir
 
Speed
knots
Gust
knots
hPa Trend Height
m
Period
s
Dir
27/02:30pm 27.8 ESE 19 24 1010.0 - 0.0 - Mostly clear 10 - - - -
27/02:00pm 27.9 ESE 17 21 1010.3 - 0.0 Fine Mostly clear 28 - - - -
27/01:30pm 27.7 ESE 18 23 1010.5 - 0.0 - Mostly clear 10 - - - -
27/01:00pm 27.7 ESE 19 24 1010.7 - 0.0 - Mostly clear 10 - - - -
27/12:30pm 27.4 ESE 18 23 1010.6 - 0.0 - Mostly clear 10 - - - -
27/12:00pm 27.2 SE 18 23 1010.7 - 0.0 - Partly cloudy 10 - - - -
27/11:30am 27.5 ESE 18 23 1010.9 - 0.0 - Mostly clear 10 - - - -
27/11:00am 27.3 ESE 18 23 1010.9 - 0.0 Fine Partly cloudy 22 - - - -
27/10:30am 27.0 ESE 17 22 1010.9 - 0.0 - Mostly clear 10 - - - -
27/10:00am 26.8 ESE 17 22 1010.9 - 0.0 - Mostly clear 10 - - - -
27/09:30am 26.5 SE 17 22 1010.7 - 0.0 - Mostly clear 10 - - - -
27/09:00am 26.4 SE 16 21 1010.4 - 0.0 - - 10 - - - -
27/08:30am 26.1 SE 16 21 1010.3 - 0.0 - Mostly clear 10 - - - -
27/08:00am 25.8 ESE 15 19 1010.0 - 0.0 Fine Partly cloudy 20 - - - -
27/07:30am 25.5 SE 15 19 1009.7 - 0.0 - Mostly clear 10 - - - -
27/07:00am 25.2 SE 15 19 1009.4 - 0.0 - Mostly clear 10 - - - -
27/06:30am 25.2 SE 15 19 1009.2 - 0.0 - Partly cloudy 10 - - - -
27/06:00am 25.2 SE 16 21 1009.1 - 0.0 - Partly cloudy 10 - - - -
27/05:30am 25.2 SE 15 19 1008.9 - 0.0 - Partly cloudy 10 - - - -
27/05:00am 25.3 SE 15 19 1008.6 - 0.0 - Partly cloudy 10 - - - -
27/04:30am 25.4 ESE 15 19 1008.5 - 0.0 - Cloudy 10 - - - -
27/04:00am 25.5 ESE 14 17 1008.7 - 0.0 - Partly cloudy 10 - - - -
27/03:30am 25.6 ESE 14 17 1008.7 - 0.0 - Partly cloudy 10 - - - -
27/03:00am 25.6 SE 14 17 1008.9 - 0.0 - Partly cloudy 10 - - - -
27/02:30am 25.8 SE 14 17 1009.3 - 0.0 - Partly cloudy 10 - - - -
27/02:00am 25.9 SE 13 16 1009.8 - 0.0 - Mostly clear 10 - - - -
27/01:30am 25.9 SE 14 17 1010.2 - 0.0 - - 10 - - - -
27/01:00am 26.1 SE 12 17 1010.5 - 0.0 - - 10 - - - -
27/12:30am 26.1 ESE 12 15 1010.9 - 0.0 - - 10 - - - -
27/12:00am 26.1 ESE 12 15 1011.1 - 0.0 - - 10 - - - -
 
Date/Time
WST
Temp

°C
Wind Pressure Rain
since 9am
mm
Weather Cloud Vis
km
Sea
Height
m
Swell
Dir
 
Speed
knots
Gust
knots
hPa Trend Height
m
Period
s
Dir
26/11:30pm 26.1 ESE 11 15 1011.3 - 0.0 - - 10 - - - -
26/11:00pm 26.3 ESE 13 15 1011.2 - 0.0 - - 10 - - - -
26/10:30pm 26.2 ESE 12 16 1011.0 - 0.0 - Partly cloudy 10 - - - -
26/10:00pm 26.3 ESE 12 16 1010.7 - 0.0 - Partly cloudy 10 - - - -
26/09:30pm 26.3 ESE 12 15 1010.4 - 0.0 - - 10 - - - -
26/09:00pm 26.4 ESE 12 16 1010.3 - 0.0 - - 10 - - - -
26/08:30pm 26.4 ESE 11 14 1010.0 - 0.0 - Partly cloudy 10 - - - -
26/08:00pm 26.5 ESE 11 14 1009.9 - 0.0 - - 10 - - - -
26/07:30pm 26.5 ESE 12 15 1009.7 - 0.0 - - 10 - - - -
26/07:00pm 27.0 ESE 11 15 1009.6 - 0.0 - Partly cloudy 10 - - - -
26/06:30pm 27.0 ESE 11 15 1009.3 - 0.0 - Mostly clear 10 - - - -
26/06:00pm 27.3 ESE 13 15 1009.0 - 0.0 - Mostly clear 10 - - - -
26/05:30pm 27.4 ESE 12 16 1008.9 - 0.0 - Mostly clear 10 - - - -
26/05:00pm 28.0 ESE 13 17 1008.8 - 0.0 Fine Mostly cloudy 20 - - - -
26/04:30pm 27.8 ESE 13 16 1008.8 - 0.0 - Mostly clear 10 - - - -
26/04:00pm 29.0 ESE 13 17 1008.8 - 0.0 - Mostly clear 10 - - - -
26/03:30pm 28.3 SE 13 16 1009.1 - 0.0 - Mostly clear 10 - - - -
26/03:00pm 28.2 ESE 14 18 1009.3 - 0.0 - Mostly clear 10 - - - -
26/02:30pm 28.7 ESE 14 17 1009.7 - 0.0 - - 10 - - - -
26/02:00pm 28.5 SE 15 19 1009.9 - 0.0 Fine Mostly cloudy 15 - - - -
26/01:30pm 28.6 SE 14 17 1010.1 - 0.0 - Partly cloudy 10 - - - -
26/01:00pm 28.2 SE 14 18 1010.2 - 0.0 - Mostly clear 10 - - - -
26/12:30pm 28.6 SE 14 18 1010.4 - 0.0 - Mostly clear 10 - - - -
26/12:00pm 28.2 SE 13 18 1010.6 - 0.0 - Mostly clear 10 - - - -
26/11:30am 28.0 SE 14 17 1010.8 - 0.0 - Mostly clear 10 - - - -
26/11:00am 27.5 SE 14 17 1010.9 - 0.0 Fine Partly cloudy 15 - - - -
26/10:30am 27.9 SE 14 18 1011.0 - 0.0 - Mostly clear 10 - - - -
26/10:00am 27.3 SE 13 16 1011.0 - 0.0 - Mostly clear 10 - - - -
26/09:30am 27.1 SE 14 18 1010.8 - 0.0 - Mostly clear 10 - - - -
26/09:00am 26.8 SE 14 19 1010.6 - 0.0 - - 10 - - - -
26/08:30am 26.5 SE 14 17 1010.4 - 0.0 - Partly cloudy 10 - - - -
26/08:00am 25.9 ESE 12 15 1010.3 - 0.0 Fine Partly cloudy 15 - - - -
26/07:30am 25.6 SE 12 16 1010.1 - 0.0 - Mostly clear 10 - - - -
26/07:00am 25.4 ESE 13 16 1009.6 - 0.0 - Mostly clear 10 - - - -
26/06:30am 25.4 SE 13 17 1009.2 - 0.0 - - 10 - - - -
26/06:00am 25.4 ESE 14 19 1009.1 - 0.0 - - 10 - - - -
26/05:30am 25.4 SE 13 19 1009.0 - 0.0 - Partly cloudy 10 - - - -
26/05:00am 25.4 ESE 14 17 1009.0 - 0.0 - - 10 - - - -
26/04:30am 25.5 ESE 15 20 1009.0 - 0.0 - Partly cloudy 10 - - - -
26/04:00am 25.5 SE 14 18 1009.2 - 0.0 - Partly cloudy 10 - - - -
26/03:30am 25.6 SE 14 19 1009.5 - 0.0 - Partly cloudy 10 - - - -
26/03:00am 25.6 SE 15 19 1009.6 - 0.0 - - 10 - - - -
26/02:30am 25.8 SE 15 19 1010.1 - 0.0 - Partly cloudy 10 - - - -
26/02:00am 25.9 SE 15 20 1010.2 - 0.0 - Mostly clear 10 - - - -
26/01:30am 26.0 SE 15 19 1010.7 - 0.0 - Partly cloudy 10 - - - -
26/01:00am 26.2 SE 13 18 1011.2 - 0.0 - Partly cloudy 10 - - - -
26/12:30am 26.2 SE 13 18 1011.5 - 0.0 - - 10 - - - -
26/12:00am 26.3 SE 15 18 1011.7 - 0.0 - - 10 - - - -
 
Date/Time
WST
Temp

°C
Wind Pressure Rain
since 9am
mm
Weather Cloud Vis
km
Sea
Height
m
Swell
Dir
 
Speed
knots
Gust
knots
hPa Trend Height
m
Period
s
Dir
25/11:30pm 26.3 SE 14 18 1011.7 - 0.0 - - 10 - - - -
25/11:00pm 26.5 SE 13 17 1011.7 - 0.0 - Mostly clear 10 - - - -
25/10:30pm 26.4 SE 13 17 1011.7 - 0.0 - - 10 - - - -
25/10:00pm 26.5 SE 14 19 1011.4 - 0.0 - - 10 - - - -
25/09:30pm 26.4 SE 14 17 1011.3 - 0.0 - - 10 - - - -
25/09:00pm 26.5 SE 13 17 1011.2 - 0.0 - - 10 - - - -
25/08:30pm 26.5 SE 12 15 1010.9 - 0.0 - - 10 - - - -
25/08:00pm 26.5 SE 12 15 1010.5 - 0.0 - - 10 - - - -
25/07:30pm 26.4 SSE 12 16 1010.2 - 0.0 - - 10 - - - -
25/07:00pm 26.9 SE 12 16 1010.1 - 0.0 - - 10 - - - -
25/06:30pm 27.4 SE 13 16 1010.0 - 0.0 - - 10 - - - -
25/06:00pm 27.7 SE 11 15 1009.9 - 0.0 - Mostly clear 10 - - - -
25/05:30pm 27.8 SE 12 15 1009.7 - 0.0 - Mostly clear 10 - - - -
25/05:00pm 27.9 SE 12 16 1009.7 - 0.0 Fine Mostly cloudy 15 - - - -
25/04:30pm 28.0 SE 11 15 1009.8 - 0.0 - Mostly clear 10 - - - -
25/04:00pm 28.3 SE 12 15 1010.2 - 0.0 - Mostly clear 10 - - - -
25/03:30pm 28.3 SE 12 15 1010.4 - 0.0 - Mostly clear 10 - - - -
25/03:00pm 28.1 SE 14 18 1010.7 - 0.0 - Mostly clear 10 - - - -
25/02:30pm 28.2 ESE 13 17 1011.1 - 0.0 - Mostly clear 10 - - - -
25/02:00pm 28.2 SE 14 18 1011.4 - 0.0 Fine Mostly cloudy 15 - - - -
25/01:30pm 27.9 ESE 14 17 1011.8 - 0.0 - Mostly clear 10 - - - -
25/01:00pm 28.1 ESE 14 17 1012.1 - 0.0 - Mostly clear 10 - - - -
25/12:30pm 28.2 ESE 13 16 1012.2 - 0.0 - Mostly clear 10 - - - -
25/12:00pm 28.0 SE 12 16 1012.3 - 0.0 - Mostly clear 10 - - - -
25/11:30am 28.0 SE 13 17 1012.4 - 0.0 - Mostly clear 10 - - - -
25/11:00am 27.3 SE 13 16 1012.5 - 0.0 Fine Mostly cloudy 12 - - - -
25/10:30am 27.3 SE 14 18 1012.5 - 0.0 - Mostly clear 10 - - - -
25/10:00am 27.2 SE 14 18 1012.4 - 0.0 - Mostly clear 10 - - - -
25/09:30am 26.9 SE 14 17 1012.1 - 0.0 - Partly cloudy 10 - - - -
25/09:00am 26.7 SE 14 17 1011.9 - 0.0 - Mostly clear 10 - - - -
25/08:30am 26.5 SE 14 18 1011.8 - 0.0 - Mostly clear 10 - - - -
25/08:00am 26.2 SE 13 16 1011.5 - 0.0 Fine Mostly cloudy 12 - - - -
25/07:30am 25.9 ESE 12 15 1011.3 - 0.0 - Mostly clear 10 - - - -
25/07:00am 25.8 ESE 14 17 1011.0 - 0.0 - Partly cloudy 10 - - - -
25/06:30am 25.7 ESE 13 16 1010.8 - 0.0 - Partly cloudy 10 - - - -
25/06:00am 25.6 ESE 13 18 1010.6 - 0.0 - Partly cloudy 10 - - - -
25/05:30am 25.6 ESE 13 16 1010.5 - 0.0 - Partly cloudy 10 - - - -
25/05:00am 25.5 ESE 12 15 1010.5 - 0.0 - Mostly clear 10 - - - -
25/04:30am 25.6 ESE 13 17 1010.7 - 0.0 - Partly cloudy 10 - - - -
25/04:00am 25.5 ESE 13 17 1010.8 - 0.0 - Partly cloudy 10 - - - -
25/03:30am 25.6 ESE 13 16 1011.2 - 0.0 - - 10 - - - -
25/03:00am 25.7 ESE 14 18 1011.3 - 0.0 - Partly cloudy 10 - - - -
25/02:30am 25.9 SE 15 20 1011.6 - 0.0 - Partly cloudy 10 - - - -
25/02:00am 25.9 SE 15 19 1011.9 - 0.0 - Mostly clear 10 - - - -
25/01:30am 26.0 ESE 14 19 1012.2 - 0.0 - Partly cloudy 10 - - - -
25/01:00am 26.2 ESE 15 20 1012.4 - 0.0 - Partly cloudy 10 - - - -
25/12:30am 26.3 ESE 16 20 1012.7 - 0.0 - Partly cloudy 10 - - - -
25/12:00am 26.4 ESE 15 21 1012.8 - 0.0 - Partly cloudy 10 - - - -
 
Date/Time
WST
Temp

°C
Wind Pressure Rain
since 9am
mm
Weather Cloud Vis
km
Sea
Height
m
Swell
Dir
 
Speed
knots
Gust
knots
hPa Trend Height
m
Period
s
Dir
24/11:30pm 26.4 ESE 16 20 1012.7 - 0.0 - Partly cloudy 10 - - - -
24/11:00pm 26.5 ESE 15 19 1012.6 - 0.0 - Mostly clear 10 - - - -
24/10:30pm 26.5 ESE 15 19 1012.6 - 0.0 - Partly cloudy 10 - - - -
24/10:00pm 26.6 ESE 15 19 1012.3 - 0.0 - Partly cloudy 10 - - - -
24/09:30pm 26.7 ESE 14 21 1012.0 - 0.0 - Partly cloudy 10 - - - -
24/09:00pm 26.7 ESE 16 22 1011.6 - 0.0 - Partly cloudy 10 - - - -
24/08:30pm 26.8 ESE 15 20 1011.3 - 0.0 - Partly cloudy 10 - - - -
24/08:00pm 26.8 ESE 16 19 1011.0 - 0.0 - - 10 - - - -
24/07:30pm 26.9 ESE 15 18 1010.6 - 0.0 - Partly cloudy 10 - - - -
24/07:00pm 27.2 ESE 15 19 1010.4 - 0.0 - Partly cloudy 10 - - - -
24/06:30pm 27.3 ESE 16 21 1010.1 - 0.0 - Partly cloudy 10 - - - -
24/06:00pm 27.4 ESE 15 20 1009.9 - 0.0 - Mostly clear 10 - - - -
24/05:30pm 27.7 ESE 16 21 1009.9 - 0.0 - Mostly clear 10 - - - -
24/05:00pm 27.9 ESE 16 19 1009.8 - 0.0 Fine Mostly cloudy 25 - - - -
24/04:30pm 28.0 ESE 15 19 1010.0 - 0.0 - Mostly clear 10 - - - -

Other Formats:

Comma delimited format used in spreadsheet applications
http://www.bom.gov.au/fwo/IDW60701/IDW60701.96996.axf

JavaScript Object Notation format (JSON) in row-major order
http://www.bom.gov.au/fwo/IDW60701/IDW60701.96996.json